OBJECT A, 64087

Orbit data source: Space-Track

You're viewing an Uncataloged Satellite

Recently launched and/or uncataloged satellites may have evolving metadata. Metadata may include but not limited to: Owner, Maufacturer, Bus, Motor, and Mission.

OBJECT A, 64087 is a Chinese satellite in SSO that was launched on Wed, 21 May 2025 UTC via a LIJIAN-1 launch vehicle from the Jiuquan Satellite Launch Center, China (JSC). Unknown objects in Earth's orbit typically refer to objects detected orbiting the Earth but have not yet been identified or cataloged. These objects could be anything from previously untracked satellites, spent rocket stages, debris from satellite collisions, or even natural meteoroids temporarily captured by Earth's gravity.

Loading next visibility...
Identifier
64087, 2025-108A
Orbit
SSO
Last TLE update
7 hours ago
Origin
Flag of CNCN / PRC
Manufacturer
Unknown
Mission
Operational Commercial Imaging
Bus & Motor
Unknown
Mass
Unknown
Launch date (UTC)
2025-05-21 (2 months ago)
Launch vehicle
LIJIAN-1
Launch site
Jiuquan Satellite Launch Center, China (JSC)
Object type
Unknown
Shape & HBR
Box + Cyl + 2 Pan, 5 m
Radar Cross Section
2.585 m², Large (>1 m²)

Expand to show TLE details & history

TLE from 7 hours ago
0 OBJECT A
1 64087U 25108A   25192.19413975  .00002709  00000-0  16108-3 0  9996
2 64087  97.5127 267.2882 0011496 119.5493 240.6885 15.12059150  7724
Epoch: 2025-07-11T04:39Z
TLE epoch observation values (Epoch: 2025-07-11T04:39:33.674Z)
Latitude
-0.00002°
Longitude
-91.95168°
Altitude
536.893 km
Speed
7.592 km/s
True Right ascension
17h 49m 09s
True Declination
0° 00' 00"
Sunlit
Object was in full shadow at epoch
Visualization orbit readout
Latitude
-42.82814°
Longitude
81.36615°
Altitude
548.426 km
Speed
7.585 km/s
Apparent Right ascension
08h 44m 35s
Apparent Declination
-54° 52' 31"
Sunlit
Object is in daylight
Visualization observer readout
Local Sidereal Time
00:17:48
Azimuth
131.399° SE
Elevation
-52.048°
Doppler factor
1
Orbital elements
Apogee altitude
534.84 km
Perigee altitude
518.964 km
Semi-major axis
6,905.039 km
Eccentricity
0.00115
Inclination
97.5127°
RAAN
267.2882°
Arg. of periapsis
119.5493°
True anomaly
Unknown
Mean anomaly
240.6885°
Eccentric anomaly
Unknown
Mean motion
3.78263 °/min
Orbital period
95.17 mins
BSTAR
0.00016108
Loading maneuver chart data...
Loading SW <> Apogee altitude chart data...
Loading historical data...
Loading historical data...
Loading historical data...
Loading historical data...
Loading historical data...
Loading historical data...
Loading historical data...
Other satellites on launch #108 in the year 2025 (2025-05-21 UTC)

OBJECT A Visibility forecast

Observer location: undefined°, undefined°

Span
Click to sort rows by Start time (UTC) header in descending order
Start Az.
Max El. time (UTC)
Max El. Az.
Max El.
End time (UTC)
End Az.
6 mins2025-07-11 17:55:40.594Z11.144° NNE2025-07-11 17:58:40.594Z345.031° N44.791°2025-07-11 18:01:40.594Z194.538° SSW
5 mins2025-07-12 04:37:40.594Z133.001° SE2025-07-12 04:39:40.594Z85.73° E32.016°2025-07-12 04:42:40.594Z9.278° NNE
|